UAL154 PTSA-PTPN

Flight info

Callsign UAL154
Flight time 0h 50m
Altitude 32000
Route UKS AXTEN
Aircraft B738/M-SDE2E3FGHIRWXY/LB1

Departure

Time 2026-05-05 16:47
Airport Kosrae International Airport (PTSA)

Arrival

Time 2026-05-05 17:37
Airport Pohnpei International Airport (PTPN)
Time Latitude Longitude Altitude Speed Heading
2026-05-05 16:33 5.35340 162.95596 28 ft 0 kts 53°
2026-05-05 16:44 5.35350 162.95602 29 ft 6 kts 19°
2026-05-05 16:44 5.35383 162.95590 27 ft 6 kts 313°
2026-05-05 16:44 5.35435 162.95533 27 ft 17 kts 313°
2026-05-05 16:45 5.35414 162.95428 28 ft 20 kts 238°
2026-05-05 16:45 5.35325 162.95286 29 ft 26 kts 252°
2026-05-05 16:45 5.35272 162.95185 30 ft 7 kts 192°
2026-05-05 16:45 5.35262 162.95198 28 ft 2 kts 113°
2026-05-05 16:46 5.35267 162.95213 30 ft 2 kts 64°
2026-05-05 16:46 5.35268 162.95214 30 ft 0 kts 54°
2026-05-05 16:46 5.35405 162.95416 28 ft 76 kts 56°
2026-05-05 16:46 5.35848 162.96066 28 ft 147 kts 54°
2026-05-05 16:47 5.36504 162.96991 565 ft 165 kts 57°
2026-05-05 16:47 5.37173 162.97969 1327 ft 175 kts 57°
2026-05-05 16:47 5.37694 162.98667 1575 ft 198 kts 52°
2026-05-05 16:47 5.38895 162.99492 1804 ft 226 kts 20°
2026-05-05 16:48 5.40540 162.99534 2166 ft 250 kts 347°
2026-05-05 16:48 5.42115 162.98681 2518 ft 272 kts 317°
2026-05-05 16:48 5.43167 162.97052 3127 ft 283 kts 293°
2026-05-05 16:48 5.43847 162.95203 4037 ft 282 kts 288°
2026-05-05 16:49 5.44454 162.93322 4829 ft 287 kts 287°
2026-05-05 16:49 5.45059 162.91395 5631 ft 288 kts 287°
2026-05-05 16:49 5.45663 162.89469 6415 ft 293 kts 287°
2026-05-05 16:49 5.46285 162.87508 7151 ft 296 kts 288°
2026-05-05 16:50 5.46917 162.85533 7911 ft 298 kts 288°
2026-05-05 16:50 5.47560 162.83537 8650 ft 301 kts 288°
2026-05-05 16:50 5.48214 162.81521 9368 ft 306 kts 288°
2026-05-05 16:50 5.48876 162.79487 10079 ft 309 kts 288°
2026-05-05 16:51 5.49556 162.77404 10403 ft 327 kts 289°
2026-05-05 16:51 5.50287 162.75170 10610 ft 347 kts 289°
2026-05-05 16:51 5.51051 162.72839 11044 ft 357 kts 289°
2026-05-05 16:51 5.51837 162.70440 11649 ft 361 kts 289°
2026-05-05 16:52 5.52622 162.68045 12347 ft 362 kts 289°
2026-05-05 16:52 5.53416 162.65623 12950 ft 366 kts 289°
2026-05-05 16:52 5.54215 162.63186 13559 ft 370 kts 289°
2026-05-05 16:52 5.55027 162.60710 14114 ft 373 kts 289°
2026-05-05 16:53 5.55841 162.58228 14669 ft 376 kts 289°
2026-05-05 16:53 5.56663 162.55721 15211 ft 379 kts 289°
2026-05-05 16:53 5.57491 162.53197 15743 ft 382 kts 289°
2026-05-05 16:53 5.58314 162.50686 16254 ft 385 kts 289°
2026-05-05 16:54 5.59153 162.48124 16793 ft 388 kts 289°
2026-05-05 16:54 5.60001 162.45539 17290 ft 391 kts 289°
2026-05-05 16:54 5.60854 162.42934 17807 ft 394 kts 289°
2026-05-05 16:54 5.61716 162.40305 18274 ft 398 kts 289°
2026-05-05 16:55 5.62582 162.37658 18710 ft 400 kts 289°
2026-05-05 16:55 5.63452 162.35003 19141 ft 403 kts 289°
2026-05-05 16:55 5.64334 162.32309 19568 ft 405 kts 289°
2026-05-05 16:55 5.65216 162.29614 19968 ft 408 kts 289°
2026-05-05 16:56 5.66105 162.26896 20390 ft 411 kts 289°
2026-05-05 16:56 5.67002 162.24157 20812 ft 413 kts 289°
2026-05-05 16:56 5.67899 162.21413 21223 ft 415 kts 289°
2026-05-05 16:56 5.68807 162.18639 21587 ft 419 kts 289°
2026-05-05 16:57 5.69717 162.15856 21977 ft 421 kts 289°
2026-05-05 16:57 5.70622 162.13088 22374 ft 423 kts 289°
2026-05-05 16:57 5.71545 162.10265 22726 ft 427 kts 289°
2026-05-05 16:57 5.72473 162.07427 23104 ft 429 kts 289°
2026-05-05 16:58 5.73404 162.04579 23441 ft 432 kts 289°
2026-05-05 16:58 5.74345 162.01700 23737 ft 434 kts 289°
2026-05-05 16:58 5.75285 161.98822 24059 ft 435 kts 289°
2026-05-05 16:58 5.76231 161.95925 24323 ft 438 kts 289°
2026-05-05 16:59 5.77184 161.93010 24605 ft 440 kts 289°
2026-05-05 16:59 5.78140 161.90080 24922 ft 441 kts 289°
2026-05-05 16:59 5.79100 161.87140 25210 ft 443 kts 289°
2026-05-05 16:59 5.80060 161.84198 25476 ft 446 kts 289°
2026-05-05 17:00 5.81031 161.81225 25739 ft 448 kts 289°
2026-05-05 17:00 5.82002 161.78247 26040 ft 449 kts 289°
2026-05-05 17:00 5.82977 161.75259 26322 ft 451 kts 289°
2026-05-05 17:00 5.83956 161.72259 26571 ft 453 kts 289°
2026-05-05 17:01 5.84940 161.69242 26829 ft 455 kts 289°
2026-05-05 17:01 5.85926 161.66215 27096 ft 457 kts 289°
2026-05-05 17:01 5.86919 161.63170 27344 ft 459 kts 289°
2026-05-05 17:01 5.87901 161.60158 27594 ft 461 kts 289°
2026-05-05 17:02 5.88901 161.57088 27824 ft 463 kts 289°
2026-05-05 17:02 5.89905 161.54008 28096 ft 465 kts 287°
2026-05-05 17:02 5.90912 161.50915 28328 ft 466 kts 287°
2026-05-05 17:02 5.91920 161.47819 28580 ft 468 kts 287°
2026-05-05 17:03 5.92931 161.44712 28851 ft 468 kts 287°
2026-05-05 17:03 5.93947 161.41589 29056 ft 471 kts 287°
2026-05-05 17:03 5.94967 161.38455 29256 ft 473 kts 287°
2026-05-05 17:03 5.95989 161.35315 29484 ft 474 kts 287°
2026-05-05 17:04 5.97014 161.32162 29698 ft 476 kts 287°
2026-05-05 17:04 5.98044 161.28995 29877 ft 478 kts 287°
2026-05-05 17:04 5.99076 161.25821 30056 ft 479 kts 287°
2026-05-05 17:04 6.00114 161.22629 30238 ft 480 kts 287°
2026-05-05 17:05 6.01151 161.19439 30411 ft 482 kts 287°
2026-05-05 17:05 6.02192 161.16237 30560 ft 483 kts 287°
2026-05-05 17:05 6.03235 161.13026 30768 ft 483 kts 287°
2026-05-05 17:05 6.04280 161.09806 31008 ft 483 kts 287°
2026-05-05 17:06 6.05306 161.06648 31311 ft 480 kts 287°
2026-05-05 17:06 6.06340 161.03466 31587 ft 479 kts 287°
2026-05-05 17:06 6.07368 161.00302 31784 ft 476 kts 287°
2026-05-05 17:06 6.08396 160.97134 31811 ft 475 kts 288°
2026-05-05 17:07 6.10449 160.90803 31833 ft 478 kts 288°
2026-05-05 17:07 6.12523 160.84406 31832 ft 484 kts 288°
2026-05-05 17:08 6.14619 160.77940 31827 ft 489 kts 288°
2026-05-05 17:08 6.16729 160.71428 31820 ft 490 kts 288°
2026-05-05 17:09 6.18841 160.64906 31827 ft 492 kts 288°
2026-05-05 17:09 6.20957 160.58370 31814 ft 490 kts 288°
2026-05-05 17:10 6.23069 160.51843 31829 ft 491 kts 288°
2026-05-05 17:10 6.25157 160.45386 31825 ft 492 kts 288°
2026-05-05 17:11 6.27275 160.38835 31828 ft 494 kts 288°
2026-05-05 17:11 6.29397 160.32265 31816 ft 493 kts 288°
2026-05-05 17:12 6.31519 160.25694 31819 ft 492 kts 288°
2026-05-05 17:12 6.33636 160.19135 31824 ft 493 kts 288°
2026-05-05 17:13 6.35753 160.12573 31823 ft 494 kts 288°
2026-05-05 17:13 6.37862 160.06035 31821 ft 493 kts 288°
2026-05-05 17:14 6.39978 159.99471 31826 ft 494 kts 288°
2026-05-05 17:14 6.42104 159.92872 31826 ft 497 kts 288°
2026-05-05 17:15 6.44226 159.86281 31814 ft 494 kts 288°
2026-05-05 17:15 6.46349 159.79686 31350 ft 504 kts 288°
2026-05-05 17:16 6.47428 159.76332 30768 ft 500 kts 288°
2026-05-05 17:16 6.48496 159.73011 30189 ft 495 kts 288°
2026-05-05 17:16 6.49537 159.69775 29639 ft 490 kts 288°
2026-05-05 17:16 6.50580 159.66531 29098 ft 486 kts 288°
2026-05-05 17:17 6.51614 159.63311 28570 ft 481 kts 288°
2026-05-05 17:17 6.52639 159.60122 28060 ft 477 kts 288°
2026-05-05 17:17 6.53667 159.56922 27578 ft 484 kts 289°
2026-05-05 17:17 6.54700 159.53703 27024 ft 481 kts 289°
2026-05-05 17:18 6.55720 159.50517 26491 ft 475 kts 289°
2026-05-05 17:18 6.56726 159.47374 25912 ft 469 kts 289°
2026-05-05 17:18 6.57720 159.44269 24933 ft 464 kts 289°
2026-05-05 17:18 6.58708 159.41186 23834 ft 463 kts 290°
2026-05-05 17:19 6.59694 159.38114 22811 ft 458 kts 290°
2026-05-05 17:19 6.60665 159.35087 21834 ft 451 kts 290°
2026-05-05 17:19 6.61619 159.32114 20893 ft 443 kts 290°
2026-05-05 17:19 6.62559 159.29183 19953 ft 437 kts 290°
2026-05-05 17:20 6.63487 159.26292 19011 ft 433 kts 290°
2026-05-05 17:20 6.64405 159.23430 18337 ft 423 kts 289°
2026-05-05 17:20 6.65284 159.20689 17813 ft 412 kts 289°
2026-05-05 17:20 6.66172 159.17915 17356 ft 423 kts 289°
2026-05-05 17:21 6.67085 159.15073 16860 ft 429 kts 289°
2026-05-05 17:21 6.67998 159.12224 16367 ft 426 kts 289°
2026-05-05 17:21 6.68901 159.09408 15877 ft 421 kts 289°
2026-05-05 17:22 6.70677 159.03856 14958 ft 413 kts 289°
2026-05-05 17:22 6.71555 159.01114 14487 ft 411 kts 289°
2026-05-05 17:22 6.72431 158.98372 14023 ft 410 kts 289°
2026-05-05 17:22 6.73301 158.95653 13545 ft 408 kts 289°
2026-05-05 17:23 6.74169 158.92936 13062 ft 406 kts 289°
2026-05-05 17:23 6.75031 158.90240 12585 ft 404 kts 289°
2026-05-05 17:23 6.75888 158.87559 12127 ft 401 kts 289°
2026-05-05 17:23 6.76743 158.84887 11681 ft 399 kts 289°
2026-05-05 17:24 6.77581 158.82265 11239 ft 397 kts 289°
2026-05-05 17:24 6.78425 158.79625 10799 ft 396 kts 289°
2026-05-05 17:24 6.79264 158.76997 10484 ft 390 kts 289°
2026-05-05 17:24 6.80085 158.74425 10294 ft 383 kts 289°
2026-05-05 17:25 6.80892 158.71896 10133 ft 377 kts 289°
2026-05-05 17:25 6.81434 158.70200 10026 ft 374 kts 289°
2026-05-05 17:25 6.82291 158.66946 9779 ft 353 kts 281°
2026-05-05 17:25 6.82695 158.64546 9406 ft 342 kts 281°
2026-05-05 17:26 6.83077 158.62229 9061 ft 330 kts 281°
2026-05-05 17:26 6.83444 158.59985 8734 ft 319 kts 281°
2026-05-05 17:26 6.83797 158.57811 8424 ft 309 kts 281°
2026-05-05 17:26 6.84137 158.55706 8126 ft 300 kts 281°
2026-05-05 17:27 6.84467 158.53650 7858 ft 297 kts 281°
2026-05-05 17:27 6.84799 158.51594 7576 ft 296 kts 281°
2026-05-05 17:27 6.85122 158.49598 7411 ft 290 kts 281°
2026-05-05 17:27 6.85444 158.47611 7167 ft 288 kts 281°
2026-05-05 17:28 6.85769 158.45622 6854 ft 288 kts 281°
2026-05-05 17:28 6.86100 158.43633 6591 ft 287 kts 281°
2026-05-05 17:28 6.86430 158.41652 6330 ft 286 kts 281°
2026-05-05 17:28 6.86756 158.39676 6051 ft 285 kts 281°
2026-05-05 17:29 6.87084 158.37714 5762 ft 284 kts 281°
2026-05-05 17:29 6.87410 158.35768 5581 ft 281 kts 281°
2026-05-05 17:29 6.87731 158.33822 5385 ft 281 kts 281°
2026-05-05 17:29 6.88052 158.31882 5216 ft 283 kts 281°
2026-05-05 17:30 6.88379 158.29915 5008 ft 283 kts 281°
2026-05-05 17:30 6.88695 158.27967 4809 ft 281 kts 281°
2026-05-05 17:30 6.89006 158.26048 4625 ft 280 kts 281°
2026-05-05 17:30 6.89326 158.24114 4492 ft 281 kts 281°
2026-05-05 17:31 6.89654 158.22165 4286 ft 283 kts 281°
2026-05-05 17:31 6.89974 158.20207 4090 ft 285 kts 281°
2026-05-05 17:31 6.90279 158.18242 3912 ft 283 kts 281°
2026-05-05 17:31 6.90593 158.16276 3702 ft 285 kts 280°
2026-05-05 17:32 6.90914 158.14316 3494 ft 281 kts 281°
2026-05-05 17:32 6.91230 158.12390 3290 ft 277 kts 281°
2026-05-05 17:32 6.91777 158.10551 3060 ft 274 kts 295°
2026-05-05 17:32 6.92604 158.08841 2825 ft 271 kts 302°
2026-05-05 17:33 6.93835 158.07510 2571 ft 252 kts 338°
2026-05-05 17:33 6.95428 158.07198 2497 ft 221 kts 10°
2026-05-05 17:33 6.96388 158.07375 2424 ft 205 kts 21°
2026-05-05 17:33 6.97636 158.07905 2319 ft 185 kts 37°
2026-05-05 17:34 6.98409 158.09182 2059 ft 156 kts 90°
2026-05-05 17:34 6.98407 158.09924 2000 ft 164 kts 86°
2026-05-05 17:34 6.98525 158.11443 1742 ft 163 kts 87°
2026-05-05 17:34 6.98544 158.12195 1620 ft 155 kts 89°
2026-05-05 17:35 6.98547 158.13259 1418 ft 150 kts 89°
2026-05-05 17:35 6.98544 158.14299 1215 ft 149 kts 89°
2026-05-05 17:35 6.98539 158.15377 1020 ft 156 kts 89°
2026-05-05 17:35 6.98533 158.16451 816 ft 147 kts 87°
2026-05-05 17:36 6.98533 158.17446 611 ft 138 kts 86°
2026-05-05 17:36 6.98558 158.18397 387 ft 133 kts 89°
2026-05-05 17:36 6.98523 158.19321 237 ft 140 kts 90°
2026-05-05 17:36 6.98518 158.20302 43 ft 141 kts 89°
2026-05-05 17:37 6.98510 158.21202 17 ft 114 kts 90°
2026-05-05 17:37 6.98506 158.21743 16 ft 23 kts 100°
2026-05-05 17:37 6.98486 158.21862 17 ft 8 kts 24°
2026-05-05 17:37 6.98502 158.21845 16 ft 4 kts 288°
2026-05-05 17:38 6.98506 158.21786 16 ft 14 kts 269°
2026-05-05 17:38 6.98507 158.21651 17 ft 25 kts 270°
2026-05-05 17:38 6.98509 158.21456 17 ft 30 kts 270°
2026-05-05 17:38 6.98510 158.21228 16 ft 35 kts 270°
2026-05-05 17:39 6.98511 158.21019 17 ft 27 kts 270°
2026-05-05 17:39 6.98512 158.20813 16 ft 30 kts 270°
2026-05-05 17:39 6.98513 158.20623 17 ft 27 kts 270°
2026-05-05 17:39 6.98511 158.20428 16 ft 29 kts 265°
2026-05-05 17:40 6.98419 158.20356 17 ft 17 kts 177°
2026-05-05 17:40 6.98304 158.20357 17 ft 14 kts 181°
2026-05-05 17:40 6.98234 158.20330 17 ft 9 kts 181°
2026-05-05 17:40 6.98202 158.20331 18 ft 1 kts 179°
2026-05-05 17:41 6.98195 158.20331 18 ft 1 kts 179°